Showing default

HULIANWANG DIGUI-16, 62976

Orbit data source: Space-Track

HULIANWANG DIGUI-16, 62976 is a payload satellite owned by Zhongguo Xingwang (CN) in LEO that was launched on Tue, 11 Feb 2025 UTC via a CHANG ZHENG 8A launch vehicle from the Wenchang Satellite Launch Center (WSC). Payload-class satellites include a variety of spacecraft equipped with specific instruments for various scientific and technological missions. These include communications satellites like Starlink; space stations such as the ISS; scientific satellites like the Hubble; Earth observation satellites from companies like Planet Labs, Umbra, and HawkEye 360; GPS; miniature CubeSats for education and research; and military/defense satellites.

Loading next visibility...
Identifier
62976, 2025-030F
Orbit
LEO
Last TLE update
9 hours ago
Origin
Manufacturer
CAST
Mission
Operational Civil Communications
Bus & Motor
HWHD, Unknown motor
Mass
~800 kg wet, ~800 kg dry
Launch date (UTC)
2025-02-11 (5 months ago)
Launch vehicle
CHANG ZHENG 8A
Launch site
Wenchang Satellite Launch Center (WSC)
Object type
Payload
Rocket body
Debris
Shape & HBR
Box + 2 Pan, 10 m
Radar Cross Section
5.935 m², Large (>1 m²)

Expand to show TLE details & history

TLE from 9 hours ago
0 HULIANWANG DIGUI-16
1 62976U 25030F   25183.91062562 -.00000100  00000-0  51613-4 0  9992
2 62976  50.0061  48.2907 0000479 128.8337 231.2578 13.29331090 19409
Epoch: 2025-07-02T21:51Z
TLE epoch observation values (Epoch: 2025-07-02T21:51:18.053Z)
Latitude
-0.00002°
Longitude
159.28052°
Altitude
1,150.02 km
Speed
7.279 km/s
True Right ascension
03h 13m 09s
True Declination
0° 00' 00"
Sunlit
Object was in daylight at epoch
Visualization orbit readout
Latitude
-10.10762°
Longitude
149.38528°
Altitude
1,151.952 km
Speed
7.278 km/s
Apparent Right ascension
04h 06m 57s
Apparent Declination
-26° 39' 26"
Sunlit
Object is in daylight
Visualization observer readout
Local Sidereal Time
18:34:22
Azimuth
77.914° E
Elevation
-56.761°
Doppler factor
1
Orbital elements
Apogee altitude
1,150.352 km
Perigee altitude
1,149.631 km
Semi-major axis
7,528.129 km
Eccentricity
0.00005
Inclination
50.0061°
RAAN
48.2907°
Arg. of periapsis
128.8337°
True anomaly
Unknown
Mean anomaly
231.2578°
Eccentric anomaly
Unknown
Mean motion
3.32286 °/min
Orbital period
108.34 mins
BSTAR
0.000051613
Loading maneuver chart data...
Loading SW <> Apogee altitude chart data...
Loading historical data...
Loading historical data...
Loading historical data...
Loading historical data...
Loading historical data...
Loading historical data...
Loading historical data...

HULIANWANG DIGUI-16 Visibility forecast

Observer location: undefined°, undefined°

Span
Click to sort rows by Start time (UTC) header in descending order
Start Az.
Max El. time (UTC)
Max El. Az.
Max El.
End time (UTC)
End Az.
10 mins2025-07-03 16:00:37.764Z171.455° S2025-07-03 16:05:37.764Z127.2° SE20.158°2025-07-03 16:10:37.764Z81.887° E
13 mins2025-07-03 17:52:37.764Z227.933° WSW2025-07-03 17:58:37.764Z139.023° SSE44.647°2025-07-03 18:05:37.764Z57.399° ENE
12 mins2025-07-03 19:47:37.764Z278.71° WNW2025-07-03 19:52:37.764Z339.69° N35.335°2025-07-03 19:59:37.764Z55.349° ENE
12 mins2025-07-03 21:42:37.764Z306.283° NW2025-07-03 21:47:37.764Z2.786° NNE32.331°2025-07-03 21:54:37.764Z75.421° E
13 mins2025-07-03 23:36:37.764Z307.348° NW2025-07-03 23:42:37.764Z36.528° NE43.527°2025-07-03 23:49:37.764Z114.379° SE
11 mins2025-07-04 01:30:37.764Z286.376° WNW2025-07-04 01:35:37.764Z232.659° WSW30.777°2025-07-04 01:41:37.764Z167.885° S
|